This demonstration page uses our WeatherBlox Daily Observations layout. Learn more.

Left ArrowRight Arrow

53.62937, 11.41316

Hourly Observations for January 23, 2016

Temp ( °F °C ) Dew Point ( °F °C ) Humidity (%) Winds ( mph kmh ) Pressure ( in mb ) Visibility ( mi km ) Precip ( " mm )
5:20 am 05:20 Cloudy with Light Snow 23 -5 19 -7 86 86 SE 7 11 30.15 1021 1 2 N/A
5:50 am 05:50 Cloudy with Snow 23 -5 21 -6 93 93 SSE 6 9 30.15 1021 1 1 N/A
6:20 am 06:20 Mostly Cloudy with Light Snow 23 -5 21 -6 93 93 SE 7 11 30.15 1021 1 1 N/A
6:50 am 06:50 Mostly Cloudy with Light Snow 25 -4 21 -6 86 86 SE 5 7 30.18 1022 1 1 N/A
7:20 am 07:20 Cloudy with Light Snow 25 -4 23 -5 93 93 SE 5 7 30.18 1022 2 4 N/A
7:50 am 07:50 Cloudy with Light Snow 25 -4 23 -5 93 93 SE 5 7 30.18 1022 4 6 N/A
8:20 am 08:20 Cloudy with Light Snow 25 -4 23 -5 93 93 SSW 6 9 30.18 1022 3 5 N/A
8:50 am 08:50 Cloudy with Light Snow 28 -2 27 -3 93 93 SW 6 9 30.21 1023 2 4 N/A
9:20 am 09:20 Cloudy with Light Snow 28 -2 27 -3 93 93 VRB 2 4 30.21 1023 2 3 N/A
9:50 am 09:50 Cloudy with Mist and Fog 28 -2 27 -3 93 93 VRB 2 4 30.21 1023 2 3 N/A
10:20 am 10:20 Cloudy with Freezing Fog 28 -2 28 -2 100 100 WSW 5 7 30.24 1024 0 1 N/A
10:50 am 10:50 Cloudy with Freezing Fog 28 -2 28 -2 100 100 WSW 5 7 30.24 1024 0 1 N/A
11:20 am 11:20 Cloudy with Freezing Fog 28 -2 28 -2 100 100 WSW 5 7 30.24 1024 0 1 N/A
11:50 am 11:50 Cloudy with Freezing Fog 30 -1 28 -2 93 93 W 7 11 30.27 1025 0 0 N/A
12:20 pm 12:20 Cloudy with Freezing Fog 30 -1 30 -1 100 100 W 3 6 30.27 1025 0 0 N/A
12:50 pm 12:50 Cloudy with Freezing Fog 30 -1 30 -1 100 100 WSW 5 7 30.27 1025 0 1 N/A
1:20 pm 13:20 Cloudy with Fog 32 0 32 0 100 100 W 5 7 30.27 1025 0 1 N/A
1:50 pm 13:50 Cloudy with Fog 32 0 32 0 100 100 WSW 5 7 30.27 1025 0 0 N/A
2:20 pm 14:20 Cloudy with Fog 32 0 32 0 100 100 SW 3 6 30.30 1026 0 0 N/A
2:50 pm 14:50 Cloudy with Fog 32 0 32 0 100 100 WSW 2 4 30.30 1026 0 0 N/A
3:20 pm 15:20 Cloudy with Fog 32 0 32 0 100 100 W 3 6 30.33 1027 0 0 N/A
3:50 pm 15:50 Cloudy with Fog 34 1 34 1 100 100 VRB 2 4 30.33 1027 0 0 N/A
4:20 pm 16:20 Cloudy with Fog 34 1 34 1 100 100 WSW 6 9 30.36 1028 0 0 N/A
4:50 pm 16:50 Cloudy with Fog 34 1 34 1 100 100 W 7 11 30.36 1028 0 0 N/A
5:20 pm 17:20 Cloudy with Fog 36 2 36 2 100 100 WSW 5 7 30.36 1028 0 0 N/A
5:50 pm 17:50 Cloudy with Fog 36 2 36 2 100 100 W 6 9 30.39 1029 0 0 N/A

Powered by AerisWeather